Peru, IL

7:25 AM CDT on May 26, 2017 (GMT -0500)
Illinois Valley Regional-Duncan

Weather History for KVYS - March, 2013

Change the Weather History Date:

Friday, March 8, 2013

  Actual Average Record
Temperature  
Mean Temperature 29 °F -  
Max Temperature 39 °F 45 °F 74 °F (1987)
Min Temperature 19 °F 26 °F 6 °F (1982)
Degree Days  
Heating Degree Days 36    
Moisture  
Dew Point 25 °F    
Average Humidity 80    
Maximum Humidity 94    
Minimum Humidity 65    
Precipitation  
Precipitation 0.00 in - - ()
Sea Level Pressure  
Sea Level Pressure 30.39 in    
Wind  
Wind Speed 8 mph (ESE)    
Max Wind Speed 16 mph    
Max Gust Speed 23 mph    
Visibility 8 miles    
Events      
Averages and records for this station are not official NWS values.
T = Trace of Precipitation, MM = Missing Value Source: NWS Daily Summary

Daily Weather History Graph

Daily Weather History Graph

Search for Another Location

Airport or City:

Trip Planner

Search our weather history database for the weather conditions in past years. The results will help you decide how hot, cold, wet, or windy it might be!

Date:

Astronomy

Mar. 08, 2013 Rise Set
Actual Time 6:19 AM CST 5:55 PM CST
Civil Twilight 5:51 AM CST 6:23 PM CST
Nautical Twilight 5:19 AM CST 6:55 PM CST
Astronomical Twilight 4:47 AM CST 7:27 PM CST
Moon 4:05 AM CST (3/8) 2:49 PM CST (3/8)
Length of Visible Light 12h 31m
Length of Day
11h 36m
Waning Crescent, 11% of the Moon is Illuminated
Mar 8
Waning Crescent
Mar 11
New
Mar 19
First Quarter
Mar 27
Full
Apr 2
Last Quarter

Hourly Weather History & Observations

Time (CST) Temp. Windchill Dew Point Humidity Pressure Visibility Wind Dir Wind Speed Gust Speed Precip Events Conditions
12:15 AM 23.0 °F 17.0 °F 20.3 °F 89% 30.41 in 7.0 mi East 4.6 mph - N/A   Clear
12:35 AM 21.9 °F 14.5 °F 19.4 °F 90% 30.41 in 7.0 mi East 5.8 mph - N/A   Clear
12:55 AM 23.0 °F 17.0 °F 20.7 °F 91% 30.42 in 7.0 mi East 4.6 mph - N/A   Clear
1:15 AM 21.9 °F 15.7 °F 19.6 °F 91% 30.43 in 7.0 mi East 4.6 mph - N/A   Clear
1:35 AM 22.1 °F 17.4 °F 20.1 °F 92% 30.43 in 5.0 mi East 3.5 mph - N/A   Clear
1:55 AM 20.7 °F 11.9 °F 18.7 °F 92% 30.42 in 5.0 mi East 6.9 mph - N/A   Clear
2:15 AM 20.8 °F 12.1 °F 19.0 °F 93% 30.41 in 5.0 mi East 6.9 mph - N/A   Clear
2:35 AM 20.7 °F 11.9 °F 18.7 °F 92% 30.41 in 7.0 mi East 6.9 mph - N/A   Clear
2:55 AM 22.1 °F 15.9 °F 20.1 °F 92% 30.41 in 7.0 mi East 4.6 mph - N/A   Clear
3:15 AM 21.2 °F 16.4 °F 19.2 °F 92% 30.42 in 7.0 mi East 3.5 mph - N/A   Clear
3:35 AM 20.7 °F - 18.5 °F 91% 30.43 in 7.0 mi Calm Calm - N/A   Clear
3:55 AM 20.3 °F 15.4 °F 18.3 °F 92% 30.43 in 5.0 mi East 3.5 mph - N/A   Clear
4:15 AM 19.8 °F 13.2 °F 18.0 °F 93% 30.43 in 5.0 mi East 4.6 mph - N/A   Clear
4:35 AM 19.4 °F 12.8 °F 17.6 °F 93% 30.43 in 5.0 mi East 4.6 mph - N/A   Clear
4:55 AM 19.6 °F 11.7 °F 17.6 °F 92% 30.43 in 5.0 mi East 5.8 mph - N/A   Clear
5:15 AM 19.2 °F 12.5 °F 17.4 °F 93% 30.43 in 5.0 mi East 4.6 mph - N/A   Clear
5:35 AM 19.4 °F 12.8 °F 17.8 °F 93% 30.43 in 4.0 mi ESE 4.6 mph - N/A   Clear
5:55 AM 19.4 °F 12.8 °F 17.6 °F 93% 30.44 in 4.0 mi ESE 4.6 mph - N/A   Clear
6:15 AM 20.1 °F 13.6 °F 18.5 °F 93% 30.44 in 2.5 mi East 4.6 mph - N/A   Clear
6:35 AM 19.4 °F 11.5 °F 17.6 °F 93% 30.44 in 2.5 mi East 5.8 mph - N/A   Clear
6:55 AM 19.9 °F 13.4 °F 18.5 °F 94% 30.44 in 3.0 mi East 4.6 mph - N/A   Clear
7:15 AM 20.8 °F 14.4 °F 19.2 °F 93% 30.44 in 4.0 mi East 4.6 mph - N/A   Clear
7:35 AM 21.9 °F 14.5 °F 20.1 °F 93% 30.45 in 4.0 mi ESE 5.8 mph - N/A   Clear
7:55 AM 25.0 °F 18.1 °F 22.5 °F 90% 30.45 in 5.0 mi ESE 5.8 mph - N/A   Clear
8:15 AM 27.3 °F 19.9 °F 22.8 °F 83% 30.46 in 7.0 mi ESE 6.9 mph - N/A   Clear
8:35 AM 29.1 °F 22.1 °F 22.8 °F 77% 30.45 in 10.0 mi ESE 6.9 mph - N/A   Clear
8:55 AM 30.9 °F 24.3 °F 23.4 °F 74% 30.45 in 10.0 mi ESE 6.9 mph - N/A   Clear
9:15 AM 32.4 °F 24.6 °F 24.1 °F 72% 30.45 in 10.0 mi ESE 9.2 mph - N/A   Clear
9:35 AM 34.2 °F 26.8 °F 25.0 °F 69% 30.44 in 10.0 mi ESE 9.2 mph - N/A   Clear
9:55 AM 34.7 °F 26.9 °F 24.8 °F 67% 30.45 in 10.0 mi ESE 10.4 mph - N/A   Clear
10:15 AM 36.0 °F 28.0 °F 25.3 °F 65% 30.44 in 10.0 mi ESE 11.5 mph - N/A   Clear
10:35 AM 35.6 °F 25.9 °F 24.8 °F 65% 30.45 in 10.0 mi ESE 16.1 mph - N/A   Clear
10:55 AM 36.1 °F 26.9 °F 25.7 °F 66% 30.45 in 10.0 mi ESE 15.0 mph 18.4 mph N/A   Clear
11:15 AM 36.5 °F 27.8 °F 26.2 °F 66% 30.43 in 10.0 mi ESE 13.8 mph - N/A   Clear
11:35 AM 36.9 °F 28.2 °F 26.8 °F 67% 30.43 in 10.0 mi ESE 13.8 mph - N/A   Clear
11:55 AM 36.5 °F 27.0 °F 26.6 °F 67% 30.43 in 10.0 mi East 16.1 mph - N/A   Clear
12:15 PM 36.9 °F 27.8 °F 27.3 °F 68% 30.42 in 10.0 mi ESE 15.0 mph 23.0 mph N/A   Clear
12:35 PM 37.0 °F 28.1 °F 27.9 °F 69% 30.41 in 10.0 mi ESE 15.0 mph - N/A   Clear
12:55 PM 37.2 °F 28.7 °F 28.0 °F 69% 30.40 in 10.0 mi East 13.8 mph 20.7 mph N/A   Clear
1:15 PM 37.8 °F 29.0 °F 28.9 °F 71% 30.39 in 10.0 mi ESE 15.0 mph 19.6 mph N/A   Clear
1:35 PM 37.9 °F 29.2 °F 28.8 °F 70% 30.38 in 10.0 mi ESE 15.0 mph - N/A   Clear
1:55 PM 38.3 °F 30.5 °F 28.9 °F 69% 30.38 in 10.0 mi ESE 12.7 mph 18.4 mph N/A   Clear
2:15 PM 38.3 °F 30.1 °F 29.1 °F 70% 30.37 in 10.0 mi ESE 13.8 mph 19.6 mph N/A   Clear
2:35 PM 39.4 °F 32.3 °F 30.2 °F 70% 30.36 in 10.0 mi ESE 11.5 mph 16.1 mph N/A   Clear
2:55 PM 39.6 °F 33.5 °F 30.2 °F 69% 30.36 in 10.0 mi ESE 9.2 mph - N/A   Clear
3:15 PM 39.6 °F 34.0 °F 30.4 °F 70% 30.36 in 10.0 mi ESE 8.1 mph - N/A   Clear
3:35 PM 38.5 °F 31.6 °F 29.5 °F 70% 30.35 in 10.0 mi ESE 10.4 mph - N/A   Clear
3:55 PM 38.7 °F 32.4 °F 29.8 °F 71% 30.36 in 10.0 mi ESE 9.2 mph - N/A   Clear
4:15 PM 37.9 °F 30.9 °F 29.5 °F 72% 30.35 in 10.0 mi ESE 10.4 mph - N/A   Clear
4:35 PM 37.6 °F 30.0 °F 29.5 °F 73% 30.35 in 10.0 mi ESE 11.5 mph - N/A   Clear
4:55 PM 36.9 °F 29.6 °F 29.3 °F 74% 30.35 in 10.0 mi ESE 10.4 mph - N/A   Clear
5:15 PM 36.3 °F 28.4 °F 29.1 °F 75% 30.35 in 10.0 mi ESE 11.5 mph - N/A   Clear
5:35 PM 35.8 °F 28.3 °F 28.8 °F 76% 30.35 in 10.0 mi ESE 10.4 mph - N/A   Clear
5:55 PM 35.6 °F 28.0 °F 28.8 °F 76% 30.36 in 10.0 mi ESE 10.4 mph - N/A   Clear
6:15 PM 35.1 °F 27.9 °F 28.8 °F 78% 30.35 in 10.0 mi ESE 9.2 mph - N/A   Clear
6:35 PM 34.7 °F 26.9 °F 29.1 °F 80% 30.36 in 10.0 mi ESE 10.4 mph - N/A   Clear
6:55 PM 34.3 °F 27.7 °F 29.1 °F 81% 30.35 in 10.0 mi ESE 8.1 mph - N/A   Clear
7:15 PM 34.3 °F 27.7 °F 29.1 °F 81% 30.35 in 10.0 mi East 8.1 mph - N/A   Clear
7:35 PM 33.8 °F 26.4 °F 28.4 °F 81% 30.35 in 10.0 mi ESE 9.2 mph - N/A   Clear
7:55 PM 34.3 °F 27.0 °F 28.9 °F 81% 30.33 in 10.0 mi East 9.2 mph - N/A   Clear
8:15 PM 34.3 °F 26.5 °F 28.9 °F 81% 30.32 in 10.0 mi East 10.4 mph - N/A   Clear
8:35 PM 34.3 °F 27.0 °F 28.4 °F 79% 30.33 in 10.0 mi ESE 9.2 mph - N/A   Clear
8:55 PM 33.8 °F 25.8 °F 28.4 °F 81% 30.32 in 10.0 mi East 10.4 mph - N/A   Clear
9:15 PM 34.0 °F 27.2 °F 28.2 °F 79% 30.31 in 10.0 mi East 8.1 mph - N/A   Clear
9:35 PM 34.0 °F 25.5 °F 28.6 °F 81% 30.30 in 10.0 mi ESE 11.5 mph - N/A   Clear
9:55 PM 34.3 °F 25.9 °F 28.4 °F 79% 30.30 in 10.0 mi ESE 11.5 mph - N/A   Clear
10:15 PM 34.3 °F 25.0 °F 28.2 °F 78% 30.29 in 10.0 mi ESE 13.8 mph - N/A   Clear
10:35 PM 34.3 °F 24.6 °F 28.2 °F 78% 30.29 in 10.0 mi ESE 15.0 mph - N/A   Clear
10:55 PM 34.3 °F 25.0 °F 28.4 °F 79% 30.28 in 10.0 mi ESE 13.8 mph - N/A   Clear
11:15 PM 34.3 °F 25.0 °F 28.2 °F 78% 30.28 in 10.0 mi ESE 13.8 mph - N/A   Clear
11:35 PM 33.8 °F 24.8 °F 28.0 °F 79% 30.27 in 10.0 mi ESE 12.7 mph - N/A   Clear
11:55 PM 33.8 °F 24.8 °F 28.0 °F 79% 30.27 in 10.0 mi ESE 12.7 mph - N/A   Clear